Date String (YYYY-MM-DD hh:mm:ss) UTC,Instrument flags,absolute air pressure of the measurement (hPa),sample flow rate (lpm),inlet stack bypass flow (lpm),air temperature of the measurement (°C),ambient temperature measured by the external sensor (°C),aerosol sample conditioner tube jacket temperature (°C),OPC LED temperature (°C),internal box temperature (°C),relative humidity of the measurement (%),span deviation,mass concentration of particles derived from Lorenz-Mie calculation of OPC scattering (μg/m³),mass concentration of particles derived from Lorenz-Mie calculation of OPC scattering (μg/m³),mass concentration of particles derived from Lorenz-Mie calculation of OPC scattering (μg/m³)
DateTimeUTC,F1_M11,P_M11,Q1_M11,Q2_M11,T1_M11,T2_M11,T3_M11,T4_M11,T5_M11,U1_M11,ZSPAN_M11,X0_M11,X2_M11,X1_M11
2023-12-22 05:00:00,SystemResetWarning,0833.0,5.02,000.00,025.2,024.2,000.0,033.5,026.6,11.9,0000.0,0001.30,0000.81,0000.62
2023-12-22 05:01:00,SystemResetWarning,0833.0,5.00,000.00,025.2,024.3,000.0,033.5,026.6,11.8,0000.0,0001.33,0000.83,0000.63
2023-12-22 05:02:00,SystemResetWarning,0832.9,4.99,000.00,025.2,024.3,000.0,033.5,026.6,11.8,0000.0,0001.40,0000.85,0000.63
2023-12-22 05:03:00,SystemResetWarning,0833.1,4.99,000.00,025.2,024.3,000.0,033.5,026.6,11.8,0000.0,0001.43,0000.86,0000.63
2023-12-22 05:04:00,SystemResetWarning,0833.3,5.02,000.00,025.2,024.3,000.0,033.5,026.6,11.9,0000.0,0001.49,0000.87,0000.64
2023-12-22 05:05:00,SystemResetWarning,0833.0,5.00,000.00,025.2,024.3,000.0,033.5,026.6,11.9,0000.0,0001.45,0000.86,0000.64
2023-12-22 05:06:00,SystemResetWarning,0833.1,4.99,000.00,025.2,024.3,000.0,033.5,026.6,11.9,0000.0,0001.42,0000.87,0000.66
2023-12-22 05:07:00,SystemResetWarning,0833.1,4.99,000.00,025.2,024.3,000.0,033.5,026.6,11.9,0000.0,0001.49,0000.94,0000.71
2023-12-22 05:08:00,SystemResetWarning,0833.1,5.01,000.00,025.2,024.3,000.0,033.5,026.6,11.9,0000.0,0001.53,0001.00,0000.77
2023-12-22 05:09:00,SystemResetWarning,0833.2,5.00,000.00,025.2,024.3,000.0,033.5,026.6,12.1,0000.0,0001.65,0001.07,0000.83
2023-12-22 05:10:00,SystemResetWarning,0833.4,5.00,000.00,025.2,024.3,000.0,033.5,026.6,12.1,0000.0,0001.90,0001.20,0000.93
2023-12-22 05:11:00,SystemResetWarning,0833.1,5.01,000.00,025.2,024.3,000.0,033.5,026.6,12.1,0000.0,0002.11,0001.35,0001.05
2023-12-22 05:12:00,SystemResetWarning,0832.9,5.00,000.00,025.2,024.3,000.0,033.5,026.5,12.0,0000.0,0002.29,0001.49,0001.19
2023-12-22 05:13:00,SystemResetWarning,0832.9,5.01,000.00,025.2,024.3,000.0,033.5,026.5,12.0,0000.0,0002.45,0001.64,0001.34
2023-12-22 05:14:00,SystemResetWarning,0832.9,5.00,000.00,025.1,024.2,000.0,033.5,026.5,12.0,0000.0,0002.69,0001.82,0001.49
2023-12-22 05:15:00,SystemResetWarning,0833.1,4.99,000.00,025.1,024.2,000.0,033.5,026.5,12.1,0000.0,0003.04,0002.05,0001.68
2023-12-22 05:16:00,SystemResetWarning,0833.4,5.00,000.00,025.1,024.2,000.0,033.5,026.5,12.1,0000.0,0003.43,0002.32,0001.90
2023-12-22 05:17:00,SystemResetWarning,0833.3,5.01,000.00,025.1,024.2,000.0,033.5,026.5,12.1,0000.0,0003.85,0002.59,0002.10
2023-12-22 05:18:00,SystemResetWarning,0833.1,5.01,000.00,025.1,024.2,000.0,033.5,026.5,12.1,0000.0,0004.23,0002.77,0002.21
2023-12-22 05:19:00,SystemResetWarning,0832.9,4.99,000.00,025.1,024.2,000.0,033.5,026.4,12.1,0000.0,0004.69,0002.97,0002.33
2023-12-22 05:20:00,SystemResetWarning,0832.9,4.99,000.00,025.1,024.2,000.0,033.5,026.4,12.1,0000.0,0004.92,0003.09,0002.44
2023-12-22 05:21:00,SystemResetWarning,0833.0,5.02,000.00,025.0,024.2,000.0,033.5,026.3,12.1,0000.0,0005.00,0003.14,0002.53
2023-12-22 05:22:00,SystemResetWarning,0833.5,4.99,000.00,025.0,024.2,000.0,033.4,026.3,12.1,0000.0,0005.33,0003.19,0002.59
2023-12-22 05:23:00,SystemResetWarning,0833.3,4.99,000.00,025.0,024.2,000.0,033.4,026.3,12.1,0000.0,0005.51,0003.24,0002.62
2023-12-22 05:24:00,SystemResetWarning,0833.1,5.00,000.00,025.0,024.1,000.0,033.4,026.3,12.1,0000.0,0006.58,0003.27,0002.63
2023-12-22 05:25:00,SystemResetWarning,0833.2,5.01,000.00,025.0,024.1,000.0,033.4,026.3,12.0,0000.0,0007.67,0003.27,0002.64
2023-12-22 05:26:00,SystemResetWarning,0833.0,5.00,000.00,025.0,024.1,000.0,033.4,026.3,12.0,0000.0,0007.66,0003.23,0002.58
2023-12-22 05:27:00,SystemResetWarning,0833.0,4.99,000.00,025.0,024.1,000.0,033.4,026.2,12.0,0000.0,0007.61,0003.18,0002.48
2023-12-22 05:28:00,SystemResetWarning,0832.9,4.99,000.00,024.9,024.1,000.0,033.4,026.2,12.0,0000.0,0007.55,0003.11,0002.41
2023-12-22 05:29:00,SystemResetWarning,0833.3,5.00,000.00,024.9,024.1,000.0,033.4,026.2,12.0,0000.0,0007.49,0003.08,0002.38
2023-12-22 05:30:00,SystemResetWarning,0833.5,5.01,000.00,024.9,024.1,000.0,033.4,026.2,12.0,0000.0,0007.33,0002.99,0002.34
2023-12-22 05:31:00,SystemResetWarning,0833.4,4.99,000.00,024.9,024.1,000.0,033.3,026.2,12.0,0000.0,0007.55,0002.98,0002.30
2023-12-22 05:32:00,SystemResetWarning,0833.0,5.00,000.00,024.9,024.1,000.0,033.3,026.2,12.0,0000.0,0007.90,0002.93,0002.26
2023-12-22 05:33:00,SystemResetWarning,0833.1,5.00,000.00,024.9,024.1,000.0,033.3,026.1,12.0,0000.0,0008.19,0002.84,0002.21
2023-12-22 05:34:00,SystemResetWarning,0833.2,4.99,000.00,024.9,024.1,000.0,033.3,026.1,12.1,0000.0,0008.69,0002.82,0002.17
2023-12-22 05:35:00,SystemResetWarning,0833.4,5.00,000.00,024.8,024.0,000.0,033.3,026.0,12.0,0000.0,0008.45,0002.76,0002.14
2023-12-22 05:36:00,SystemResetWarning,0833.2,5.00,000.00,024.8,024.0,000.0,033.3,026.0,12.0,0000.0,0007.49,0002.75,0002.11
2023-12-22 05:37:00,SystemResetWarning,0833.2,5.02,000.00,024.8,024.0,000.0,033.3,026.0,12.0,0000.0,0007.49,0002.77,0002.11
2023-12-22 05:38:00,SystemResetWarning,0833.1,5.00,000.00,024.8,024.0,000.0,033.3,026.0,12.1,0000.0,0007.59,0002.79,0002.10
2023-12-22 05:39:00,SystemResetWarning,0833.0,5.00,000.00,024.8,024.0,000.0,033.2,025.9,12.1,0000.0,0007.65,0002.80,0002.11
2023-12-22 05:40:00,SystemResetWarning,0833.0,4.99,000.00,024.7,024.0,000.0,033.2,025.9,12.1,0000.0,0007.58,0002.77,0002.10
2023-12-22 05:41:00,SystemResetWarning,0833.1,5.00,000.00,024.7,023.9,000.0,033.2,025.9,12.1,0000.0,0007.58,0002.74,0002.07
2023-12-22 05:42:00,SystemResetWarning,0833.4,4.99,000.00,024.7,023.9,000.0,033.2,025.9,12.1,0000.0,0007.08,0002.67,0002.05
2023-12-22 05:43:00,SystemResetWarning,0833.0,5.01,000.00,024.7,023.9,000.0,033.2,026.0,12.1,0000.0,0006.28,0002.63,0002.03
2023-12-22 05:44:00,SystemResetWarning,0833.0,5.01,000.00,024.7,023.9,000.0,033.2,025.9,12.1,0000.0,0005.43,0002.64,0002.02
2023-12-22 05:45:00,SystemResetWarning,0833.2,4.99,000.00,024.7,023.9,000.0,033.2,025.9,12.1,0000.0,0004.34,0002.57,0002.00
2023-12-22 05:46:00,SystemResetWarning,0833.5,4.99,000.00,024.7,023.9,000.0,033.2,026.0,12.1,0000.0,0004.07,0002.55,0001.99
2023-12-22 05:47:00,SystemResetWarning,0833.5,5.00,000.00,024.7,023.9,000.0,033.1,026.0,12.1,0000.0,0004.27,0002.52,0001.96
2023-12-22 05:48:00,SystemResetWarning,0833.2,5.01,000.00,024.7,023.9,000.0,033.1,026.0,12.1,0000.0,0004.33,0002.49,0001.96
2023-12-22 05:49:00,SystemResetWarning,0833.1,5.00,000.00,024.7,023.9,000.0,033.1,026.1,12.1,0000.0,0003.97,0002.41,0001.95
2023-12-22 05:50:00,SystemResetWarning,0833.1,5.00,000.00,024.7,023.9,000.0,033.1,026.1,12.1,0000.0,0003.68,0002.34,0001.93
2023-12-22 05:51:00,SystemResetWarning,0833.2,4.99,000.00,024.7,023.9,000.0,033.1,026.1,12.0,0000.0,0003.68,0002.32,0001.92
2023-12-22 05:52:00,SystemResetWarning,0833.2,5.01,000.00,024.7,023.9,000.0,033.1,026.2,12.0,0000.0,0003.57,0002.28,0001.92
2023-12-22 05:53:00,SystemResetWarning,0833.4,5.01,000.00,024.7,023.9,000.0,033.1,026.2,12.0,0000.0,0003.72,0002.29,0001.92
2023-12-22 05:54:00,SystemResetWarning,0833.3,5.01,000.00,024.7,023.9,000.0,033.1,026.1,12.0,0000.0,0003.91,0002.34,0001.93
2023-12-22 05:55:00,SystemResetWarning,0833.2,5.00,000.00,024.7,023.9,000.0,033.1,026.2,11.9,0000.0,0003.83,0002.29,0001.92
2023-12-22 05:56:00,SystemResetWarning,0833.1,4.99,000.00,024.8,023.9,000.0,033.1,026.2,12.0,0000.0,0003.93,0002.29,0001.92
2023-12-22 05:57:00,SystemResetWarning,0833.1,5.00,000.00,024.8,023.9,000.0,033.1,026.2,12.0,0000.0,0004.06,0002.33,0001.92
2023-12-22 05:58:00,SystemResetWarning,0833.1,4.99,000.00,024.8,023.9,000.0,033.1,026.2,12.0,0000.0,0003.87,0002.34,0001.93
2023-12-22 05:59:00,SystemResetWarning,0833.1,5.02,000.00,024.8,023.9,000.0,033.1,026.2,11.9,0000.0,0003.67,0002.33,0001.92
